Regional Weather Roundup
Issued by NWS

Home | Current Version | Previous Version | Text Only | Print | Product List | Glossary Off
Versions: 1 2 3 4 5 6 7 8 9 10 11 12 13 14 15 16 17 18 19 20 21 22 23 24 25 26 27 28 29 30 31 32 33 34 35 36 37 38 39 40 41 42 43 44 45 46 47 48 49

000
ASUS45 KSLC 210210
RWRUT

UTAH REGIONAL WEATHER ROUNDUP
NATIONAL WEATHER SERVICE SALT LAKE CITY UT
800 PM MDT SAT SEP 20 2014

UTZ001>011-023>025-210300-

NORTHERN UTAH

CITY           SKY/WX    TMP DP  RH WIND       PRES   REMARKS
HILL AFB       PTCLDY    76  40  27 NW7       30.10R
LOGAN          CLEAR     69  54  58 S6        30.09R
OGDEN          PTCLDY    73  41  31 NW6       30.06S
PROVO AIRPORT  CLEAR     73  52  46 NW10      30.09R
SALT LAKE CITY MOCLDY    72  54  53 W8        30.06R
VERNAL         CLEAR     68  46  45 W6        30.14R
WENDOVER       CLOUDY    79  39  24 CALM      30.08S
HEBER CITY     PTCLDY    59  41  51 E7        30.14R
WEST JORDAN    CLEAR     75  39  27 W5        30.10R

$$

UTZ012>022-026-027-210300-

SOUTHERN UTAH

CITY           SKY/WX    TMP DP  RH WIND       PRES   REMARKS
BRYCE CANYON   CLOUDY    63  47  55 W13       30.28R
CEDAR CITY     CLOUDY    64  55  72 S5        30.16S
MILFORD        LGT RAIN  64  58  80 CALM      30.14R
MOAB/CYNLANDS  CLEAR     85  34  16 NE10      29.98S
PRICE          MOCLDY    78  36  21 NE18      30.15R
ST GEORGE      PTCLDY    73  57  56 NE12      29.98F
KANAB            N/A     70  50  49 NW13      30.13S

$$

REGIONAL REPORTS     COLORADO/ARIZONA

CITY           SKY/WX    TMP DP  RH WIND       PRES   REMARKS
CRAIG, CO      CLEAR     58  34  40 S5        30.23R
GRAND JUNCTION PTCLDY    82  32  16 NE15G21   30.04R
RIFLE          PTCLDY    77  35  21 SW8       30.13R
MONTROSE       MOCLDY    74  44  34 SE14      30.18R
CORTEZ         MOCLDY    75  47  36 CALM      30.12R
PAGE, AZ       MOCLDY    87  42  20 N8        29.97F
GRAND CANYON   CLOUDY    59  55  87 CALM      30.20S
KINGMAN        PTCLDY    83  51  33 SW12      29.96R
FLAGSTAFF      MOCLDY    63  54  72 CALM      30.24R

$$

REGIONAL REPORTS    NEVADA/IDAHO/WYOMING

CITY           SKY/WX    TMP DP  RH WIND       PRES   REMARKS
LAS VEGAS, NV  MOCLDY    92  45  19 SW13      29.79R
ELY            CLOUDY    70  38  31 W7        30.16S
ELKO           CLOUDY    69  46  43 S12G22    30.18R
POCATELLO, ID  CLEAR     73  46  38 N6        30.12S
BURLEY         CLEAR     67  46  47 S3        30.07F
EVANSTON, WY   CLEAR     66  30  26 E8        30.28S
ROCK SPRINGS   CLEAR     65  32  29 E9        30.28R

$$


USA.gov is the U.S. government's official web portal to all federal, state and local government web resources and services.